Location: Melizzano
(41.1500°N, 14.5000°E)
Time: 07:28:15
(UTC+00:00)

Spot 2 Rocket - Pass Details

Date: 11 May 2021
Orbit: 757 x 772 km, 98.5° (Epoch: 15 June)

Event Time Altitude Azimuth Distance (km) Brightness Sun altitude
Exits shadow 20:22:05 42° 161° (SSE) 1,075 3.8 -20.6°
Maximum altitude 20:23:50 86° 76° (ENE) 768 3.4 -20.8°
Drops below altitude 10° 20:28:54 10° 348° (NNW) 2,297 6.9 -21.4°
Sets 20:31:13 0° 348° (NNW) 3,225 7.8 -21.6°
